Zurück zum Katalog

ANIK C1 R/B

PAM-D

AktivHEO
NORAD 15644·ROCKET BODY·🇺🇸 United States

Gestartet Apr 12, 1985 von Cape Canaveral Space Force Station

Loading…

Nächste Überflüge (nächste 24 Stunden)

TLE

AktuellSource: Space-Track

Epoche: Sep 12, 2026, 17:27 UTC

1 15644U 85028D   26255.72735665  .00001262  00000-0  12163-2 0  9990
2 15644  23.0792 101.8649 6826031  48.2117 352.8216  2.81831039389230

Verfolge ANIK C1 R/B in Echtzeit mit AllMySat

Download on the App Store